FOX-1B (AO-91) (43017 NORAD) Tracking and Keplerian Element Data

This shows tracking and keplerian element data for the satellite.

Feedback or suggestion? Click here.




ElementValue
Catalog43017
NameFOX-1B (AO-91)
Epoch Orbit5288
Epoch Day315.58055233
Epoch Year2018
RAAN240.6179
Inclination97.7138
Eccentricity0.0259802
Argument of Perigee151.5162
Mean Anonmoly210.0535
Mean Motion14.78264973
Decay Rate4.58E-06
L11 43017U 17073E 18315.58055233 .00000458 00000-0 41052-4 0 9995
L22 43017 97.7138 240.6179 0259802 151.5162 210.0535 14.78264973 52888

Live tracking and technical data element details for FOX-1B (AO-91) (NORAD 43017). FOX-1B (AO-91) can be tracked NOW for your location showing map with azimuth and elevation plus other details from your city location.

Track the satellite on the map from your city or location and see movement details for azimuth, elevation, latitude, longitude, range, height, and movement on the map or in text.







IsCatalogInMostPopularTable: catalog: 43017, numindb: 305
Update: records affected: 1



GetName: 43017 FOX-1B (AO-91)

Hit Count: updated at: Mon, 12 Nov 2018 21:43:14 GMT